Regional Weather Roundup
Issued by NWS New Orleans/Baton Rouge, LA

Home | Current Version | Previous Version | Graphics & Text | Print | Product List | Glossary On
Versions: 1 2 3 4 5 6 7 8 9 10 11 12 13 14 15 16 17 18 19 20 21 22 23 24 25 26 27 28 29 30 31 32 33 34 35 36 37 38 39 40 41 42 43 44 45 46 47 48 49 50
974
ASUS44 KLIX 230105
RWRLIX
NEW ORLEANS REGIONAL WEATHER ROUNDUP
NATIONAL WEATHER SERVICE NEW ORLEANS LA
800 PM CDT WED OCT 22 2014

NOTE: "FAIR" INDICATES FEW OR NO CLOUDS BELOW 12,000 FEET WITH NO
      SIGNIFICANT WEATHER AND/OR OBSTRUCTIONS TO VISIBILITY.
      SKY/WX - SKY CONDITION AND SIGNIFICANT WEATHER.
      TMP - AIR TEMPERATURE.     DP    - DEWPOINT TEMPERATURE.
      RH  - RELATIVE HUMIDITY.   PRES  - PRESSURE.
      HI  - HEAT INDEX.          WCI   - WIND CHILL INDEX.

*  THESE STATIONS ARE NOT NWS OR FAA STATIONS AND ARE NOT UNDER
   NWS QUALITY CONTROL.

LAZ038-040-048-061>063-065>067-069-230200-
SOUTHEAST LOUISIANA

CITY           SKY/WX    TMP DP  RH WIND       PRES   REMARKS
N.O. AUDUBON   NOT AVBL
N.O. INTL ARPT CLEAR     70  54  56 N3        30.04R
N.O. LAKEFRONT CLEAR     72  58  61 SE3       30.05R
N.O. DOWNTOWN*   N/A     73  52  46 CALM      30.05R
SLIDELL        CLEAR     63  57  81 CALM      30.05R
BATON ROUGE    CLEAR     61  56  83 CALM      30.06R
BOOTHVILLE     CLEAR     72  59  63 NE5       30.04R
BELLE CHASSE   CLEAR     60  55  83 CALM      30.04R
BOGALUSA*        N/A     67  51  54 NE5       30.08R
NEW ROADS*       N/A     63  56  78 N3        30.07R
GONZALES*        N/A     61  61 100 CALM      30.05R
HAMMOND*       CLEAR     63  52  67 CALM      30.08R
HOUMA*         CLEAR     62  58  86 CALM      30.04R
PORT FOURCHON* CLEAR     72  55  56 NE8       30.07R

$$

MSZ070-080>082-230200-
SOUTHERN MISSISSIPPI

CITY           SKY/WX    TMP DP  RH WIND       PRES   REMARKS
MCCOMB         CLEAR     66  48  52 NE5       30.08R
GULFPORT       CLEAR     68  52  56 N5        30.05R
BILOXI         CLEAR     68  53  58 NE7       30.06R
PASCAGOULA     CLEAR     59  50  72 N7        30.06R

$$

COASTAL OBSERVATIONS
LAKE AND NEARSHORE STATIONS

STATION/POSITION TIME  TEMP    WIND        PRES    WAVE
                       AIR SEA DIR/SP/G            HT/PER
                 (UTC) (F)     (DEG/KT/KT) (MB)    (FT/S)
PASCAGOULA       0100   70      20/  8/ 11 1017.2
WAVELAND YACHT   0100   72      40/ 10/ 12 1016.8
GRAND ISLE       0100   72 75   60/  7/  9 1017.8
SOUTHWEST PASS   0100   72 83              1017.3
NEW CANAL        0100   72 72   90/  2/  2 1017.8
SHELL BEACH      0100   73 70   50/  5/  6 1017.2

OFFSHORE STATIONS

STATION/POSITION TIME  TEMP    WIND        PRES    WAVE
                       AIR SEA DIR/SP/G            HT/PER
                 (UTC) (F)     (DEG/KT/KT) (MB)    (FT/S)
64 S DAUPHIN ISL 0023   74 79   40/ 14/ 17 1017.4    3/ 5

$$




USA.gov is the U.S. government's official web portal to all federal, state and local government web resources and services.